User: anonymous   Login
Location: Newark
(39.0083°N, 20.7336°E)
Time: 18:58:34
(UTC+00:00)
Language:

N. Korean satellite - Orbit

View from above orbital plane
View from above orbital plane
View from above satellite
View from above satellite

Ground track
Ground track

The orbit data is extracted from the following two-line orbital elements,

1 39026U 12072A   21289.23724942  .00005449  00000-0  18109-3 0  9991
2 39026  97.2538 279.2768 0033329 316.0063  43.8526 15.31065106491501
Epoch (UTC): 16 October 2021 05:41:38
Eccentricity: 0.0033329
inclination: 97.2538°
perigee height: 450 km
apogee height: 495 km
right ascension of ascending node: 279.2768°
argument of perigee: 316.0063°
revolutions per day: 15.31065106
mean anomaly at epoch: 43.8526°
orbit number at epoch: 49150

The dashed part of the orbit path shows where the satellite is in the earth's shadow,  

DLR